Terminal Aerodrome Forecast
Issued by NWS Quad Cities IA IL

Home | Current Version | Previous Version | Text Only | Print | Product List | Glossary On
Versions: 1 2 3 4 5 6 7 8 9 10 11 12 13 14 15 16 17 18 19 20 21 22 23 24 25 26 27 28 29 30 31 32
000
FTUS43 KDVN 241000 AAC
TAFDBQ
TAF AMD
KDBQ 241041Z 2411/2506 13010KT P6SM OVC009
     FM241300 12012KT P6SM OVC007
     FM241500 11015G22KT P6SM OVC009
     FM250000 08013G20KT 3SM RA BR OVC012=

USA.gov is the U.S. government's official web portal to all federal, state and local government web resources and services.